Location: Ksi??enice
(50.1594°N, 18.6015°E)
Time: 12:49:57
(UTC+00:00)

Daily predictions for brighter satellites

Satellite Brightness Start Highest point End
(mag) Time Altitude Azimuth Time Altitude Azimuth Time Altitude Azimuth
Cosmos 2154 Rocket 4.1 15:11:22 10° N 15:17:46 87° E 15:24:08 10° S
Cosmos 1606 3.2 15:15:57 10° SSE 15:19:36 40° E 15:23:16 10° NNE
Landsat 5 4.2 15:18:19 10° NNE 15:22:32 39° E 15:26:45 10° SSE
SMAP 3.4 15:24:13 10° SE 15:28:36 43° ENE 15:33:02 10° N
Sich 1 3.0 15:25:27 10° N 15:29:51 73° ENE 15:34:10 10° SSE
Cosmos 482 Debris 3.3 15:29:16 10° W 15:31:02 46° SSW 15:32:49 10° SE
YAOGAN 1 4.5 15:33:15 10° ENE 15:34:09 11° NE 15:35:04 10° NE
Cosmos 1470 Rocket 4.4 15:30:39 10° N 15:34:23 27° ENE 15:38:05 10° SE
SL-8 Rocket 4.1 15:29:51 10° N 15:35:58 53° ENE 15:42:06 10° SSE
Cosmos 1151 Rocket 3.8 15:32:33 10° SSE 15:36:17 30° E 15:40:00 10° NNE
CZ-4C R/B 3.3 15:32:57 10° NNE 15:36:32 51° E 15:40:03 10° S
Cosmos 2341 Rocket 4.0 15:31:02 10° N 15:37:20 69° ENE 15:43:39 10° SSE
Radarsat Rocket 4.2 15:33:15 10° SSE 15:39:28 79° ENE 15:46:33 10° NNW
CZ-2C R/B 4.3 15:39:10 10° E 15:42:12 17° ENE 15:45:11 10° NNE
CZ-4B DEB 4.3 15:36:55 10° SSE 15:42:25 83° WSW 15:47:54 10° NNW
USA 281 4.0 15:38:41 10° E 15:44:06 28° NE 15:49:31 10° NNW
Cosmos 2360 Rocket 4.3 15:41:23 10° WNW 15:44:48 16° NNW 15:48:13 10° N
Cosmos 2333 Rocket 3.9 15:40:37 10° W 15:45:21 26° NW 15:50:06 10° NNE
Cosmos 2219 Rocket 3.9 15:42:53 10° W 15:47:37 27° NW 15:52:23 10° NNE
Cosmos 2285 Rocket 4.0 15:41:11 10° NNW 15:47:39 80° ENE 15:53:59 10° SSE
COSMO-SKYMED 1 4.2 15:45:53 12° ENE 15:48:05 16° E 15:50:47 10° SE
USA 81 4.2 15:44:33 10° N 15:49:43 52° ENE 15:54:52 10° SSE
TELKOM 3 3.1 15:47:41 10° W 15:50:35 86° S 15:52:24 17° E
COSMOS 2428 4.3 15:47:34 10° WSW 15:52:30 29° NW 15:57:27 10° NNE
CORIOLIS 4.2 15:47:36 10° SSE 15:52:57 64° ENE 15:58:21 10° N
USA 267 3.6 15:46:51 10° E 15:53:09 52° N 15:59:27 10° WNW
X-37B 2.7 15:52:36 10° SSW 15:54:53 18° SSE 15:57:11 10° ESE
PAYLOAD B 4.4 15:49:49 10° SSE 15:55:24 79° WSW 16:01:00 10° NNW
H-2A R/B 3.4 15:54:40 11° E 15:57:34 17° NE 16:00:47 10° NNE
Helios 1A Rocket 4.4 15:57:10 15° E 15:58:18 17° ENE 16:00:54 10° NNE
Meteor 1-4 Rocket 3.3 15:57:34 10° SSE 16:00:46 31° E 16:03:14 15° NE
Cosmos 44 Rocket 4.0 15:56:59 10° NNW 16:01:47 38° NE 16:06:21 11° ESE
Meteor 1-20 Rocket 4.3 15:55:54 10° N 16:01:48 84° ENE 16:07:37 10° SSE
Cosmos 1328 Rocket 3.7 15:59:43 10° S 16:03:54 50° E 16:08:07 10° NNE
Cosmos 2181 Rocket 4.0 15:57:48 10° S 16:04:06 65° E 16:10:23 10° NNE
Cosmos 1939 Rocket 3.5 16:00:50 10° SE 16:04:19 32° ENE 16:07:53 10° N
Cosmos 1933 Rocket 4.1 16:00:22 10° N 16:04:33 37° ENE 16:08:42 10° SE
Cosmos 1666 Rocket 3.7 16:01:15 10° NNW 16:05:41 78° W 16:10:08 10° S
CZ-4 R/B 2.7 16:05:25 17° E 16:06:37 20° ENE 16:09:36 10° NNE
Cosmos 389 Rocket 3.2 16:03:36 10° SSW 16:06:56 51° WNW 16:10:18 10° N
Cosmos 2237 Rocket 3.2 16:02:05 10° SW 16:07:27 44° NW 16:12:53 10° NNE
NOAA 11 4.1 16:03:20 10° SSE 16:08:41 66° ENE 16:14:06 10° N
Cosmos 1602 3.8 16:05:20 10° N 16:09:13 57° ENE 16:13:02 10° SSE
CZ-4B R/B 3.2 16:04:32 10° SSE 16:09:52 83° WSW 16:15:12 10° NNW
Meteor 1-26 Rocket 4.4 16:06:14 10° S 16:12:07 58° E 16:18:00 10° NNE
H-2A R/B 3.5 16:08:43 10° S 16:12:48 48° WSW 16:16:46 10° NNW
Cosmos 2369 Rocket 2.1 16:09:33 10° NNW 16:15:17 71° ENE 16:20:55 10° SE
Cosmos 1943 4.1 16:11:03 10° SSE 16:15:43 27° ESE 16:18:07 20° ENE
ADEOS Rocket 4.0 16:08:13 10° N 16:15:54 68° WNW 16:23:31 10° SSW
Cosmos 1943 Rocket 2.4 16:11:16 10° NNW 16:16:50 76° WSW 16:22:24 10° SSE
Meteor 1-14 Rocket 4.3 16:11:11 10° N 16:17:07 62° ENE 16:23:04 10° SSE
Cosmos 1538 Rocket 4.3 16:14:08 10° S 16:19:16 47° ESE 16:23:21 16° NE
NOAA 12 4.4 16:14:14 10° S 16:19:33 74° WSW 16:24:53 10° NNW
CENTAUR R/B 4.0 16:17:08 10° SE 16:20:27 15° ESE 16:20:30 15° ESE
H-2A R/B 2.1 16:16:14 10° NNE 16:20:27 78° WNW 16:24:45 10° SSW
CZ-2D R/B 3.8 16:18:15 10° SE 16:21:44 34° ENE 16:25:16 10° N
SL-08 R/B 4.4 16:19:48 10° N 16:25:55 63° ENE 16:31:57 10° SSE
Okean O Rocket 2.1 16:22:02 10° S 16:26:21 64° WSW 16:30:45 10° NNW
ARGOS 4.2 16:27:01 23° ENE 16:27:06 23° ENE 16:31:13 10° N
Cosmos 1782 2.7 16:23:48 10° S 16:27:43 62° E 16:31:08 14° NNE
Okean-O 3.2 16:23:58 10° SE 16:27:56 33° ENE 16:31:55 10° N
Cosmos 2056 Rocket 4.4 16:23:37 10° N 16:28:04 27° NE 16:29:05 25° ENE
Cosmos 1633 Rocket 3.9 16:25:37 10° NNW 16:29:53 53° W 16:34:07 10° S
DEBRIS 4.5 16:13:39 10° W 16:31:01 84° S 16:34:04 23° ESE
ISS -3.8 16:28:40 10° WNW 16:32:02 69° N 16:32:58 43° ENE
Cosmos 1933 4.0 16:29:29 10° SSW 16:33:28 56° WNW 16:37:30 10° N
Cosmos 2218 Rocket 4.2 16:30:10 10° NNW 16:36:19 72° W 16:42:25 10° S
SKYMED 2 3.9 16:34:31 26° NE 16:36:34 43° E 16:40:43 10° S
Cosmos 2366 rocket 4.2 16:31:07 10° NNW 16:37:17 74° W 16:43:23 10° S
ERS-2 2.2 16:36:10 32° NE 16:37:36 55° ESE 16:41:12 10° S
Cosmos 1869 Rocket 4.1 16:35:06 10° N 16:39:16 36° ENE 16:40:22 31° ESE
Cosmos 1867 4.4 16:35:47 10° WSW 16:41:01 46° NW 16:44:54 18° NNE
Cosmos 489 Rocket 4.4 16:38:12 10° SSW 16:44:24 79° ESE 16:49:47 15° NNE
Cosmos 371 Rocket 3.7 16:44:30 10° NNW 16:49:04 38° ENE 16:49:18 38° ENE
Lacrosse 5 rocket 1.5 16:45:58 10° WSW 16:49:30 49° NNW 16:50:15 41° NNE
Cosmos 773 Rocket 4.4 16:44:57 10° SW 16:50:11 65° WNW 16:54:45 14° NNE
SL-23 DEB 4.5 16:47:03 10° SW 16:50:48 58° SSE 16:52:39 37° E
NOSS 3-2 (A) 3.9 16:47:36 10° S 16:52:46 37° ESE 16:54:01 34° E
Feng Yun 1-1 Rocket 4.4 16:51:08 10° S 16:56:52 75° WSW 17:02:28 10° NNW
CZ-4B R/B 1.5 16:56:26 47° NNW 16:57:07 64° WNW 17:00:14 10° SSW
Cosmos 2239 Rocket 4.4 16:52:13 10° N 16:58:22 65° ENE 17:04:30 10° SSE
SL-16 R/B 3.1 16:55:09 10° SW 17:00:34 46° NW 17:05:04 15° NNE
USA 215 3.8 16:59:21 33° E 17:01:18 40° SE 17:07:22 10° SSW
EO 1 Delta rocket 4.5 16:58:15 10° NNE 17:03:56 82° E 17:11:15 10° S
BREEZE-M DEB (TANK) 3.9 17:02:25 10° WSW 17:03:26 24° SW 17:03:26 24° SW
Cosmos 1500 3.2 17:01:43 10° NNW 17:05:33 77° W 17:09:22 10° S
YAOGAN 1 2.4 17:09:18 67° E 17:09:26 68° ENE 17:13:45 10° N
Cosmos 1656 Rocket 3.7 17:05:06 10° NNW 17:10:47 81° WSW 17:16:21 10° SSE
SL-24 DEB 4.3 17:06:15 10° N 17:11:01 79° W 17:15:42 10° S
USA 238 DEB 3.9 17:05:43 10° SSW 17:11:56 47° ESE 17:13:06 43° E
USA 238 3.9 17:05:49 10° SSW 17:12:02 46° ESE 17:13:10 43° E
MOS 1 Rocket 3.6 17:13:25 51° ENE 17:14:10 56° E 17:19:26 10° S
NOAA 15 4.5 17:13:15 10° SSE 17:18:34 84° ENE 17:23:52 10° NNW
STPSAT 2 (USA 217) 4.4 17:14:56 10° SSW 17:19:28 86° ESE 17:19:43 80° NE
Cosmos 158 Rocket 3.8 17:16:17 10° S 17:20:55 65° SE 17:20:55 65° SE
Cosmos 1934 Rocket 3.9 17:14:57 10° N 17:21:19 67° ENE 17:27:35 10° SSE
CZ-2C R/B 2.9 17:16:33 10° SSE 17:21:32 83° WSW 17:26:21 10° NNW
SWAS 4.5 17:19:55 10° SW 17:24:10 77° WNW 17:24:10 77° WNW
Cosmos 1238 Rocket 3.1 17:20:38 10° NNW 17:24:33 76° W 17:29:19 10° S
Cosmos 923 Rocket 3.8 17:19:24 10° SSW 17:24:33 73° ESE 17:24:50 71° E
COSMO-SKYMED 1 2.9 17:23:06 37° N 17:24:41 65° WNW 17:28:59 10° SSW
USA 281 3.2 17:21:24 10° SSE 17:27:59 86° WSW 17:34:37 10° NNW
CSL-04 Debris 4.0 17:27:30 49° SE 17:28:58 74° ENE 17:34:28 10° NNW
Nadezhda 3 Rocket 4.0 17:24:35 10° S 17:30:59 84° W 17:37:23 10° N
X-37B 3.1 17:28:07 10° WSW 17:29:28 20° SW 17:29:28 20° SW
Helios 1A Rocket 3.4 17:33:25 57° WNW 17:33:25 57° WNW 17:37:03 10° NNW
Meteor 2-6 Rocket 4.3 17:28:33 10° SSW 17:34:06 74° WNW 17:37:14 26° N
Cosmos 2228 Rocket 3.3 17:29:39 10° SSW 17:34:10 70° W 17:34:29 67° NW
USA 267 3.1 17:34:11 54° ESE 17:35:53 85° NNE 17:42:28 10° WNW
H-2A R/B 1.9 17:35:18 58° SSE 17:36:22 89° ENE 17:41:30 10° NNW
Cosmos 1821 Rocket 4.5 17:31:00 10° NNW 17:37:08 61° W 17:43:20 10° S
Cosmos 1812 4.1 17:34:13 10° SSW 17:36:35 34° SW 17:36:35 34° SW
Meteor 1-11 Rocket 3.8 17:34:38 10° NNW 17:40:26 81° W 17:46:19 10° S
CZ-4 R/B 2.2 17:41:26 48° W 17:41:26 48° W 17:45:18 10° NNW
Cosmos 44 Rocket 4.1 17:38:31 10° NW 17:43:32 52° WSW 17:45:09 38° S
CSL-04 Rocket 3.5 17:44:05 81° NNW 17:44:05 81° NNW 17:49:08 10° NNW
Cosmos 1980 Rocket 4.4 17:44:27 10° N 17:45:17 12° N 17:45:17 12° N
Cosmos 1680 Rocket 3.9 17:46:09 10° SSW 17:50:18 57° SSW 17:50:18 57° SSW
Cosmos 1603 4.2 17:50:31 10° SW 17:56:02 56° NW 17:56:56 50° NNW
Cosmos 2369 Rocket 4.5 17:54:28 10° NW 17:58:45 22° W 18:03:00 10° SSW
Cosmos 1943 3.6 17:53:47 10° SW 17:59:23 60° NW 17:59:58 57° NNW
Okean-O 4.3 18:00:26 10° SSW 18:04:25 32° W 18:08:25 10° NNW
ARGOS 3.9 18:08:32 45° NW 18:08:32 45° NW 18:12:18 10° NNW
ISS -0.4 18:05:31 10° WNW 18:05:55 13° W 18:05:55 13° W
CENTAUR R/B 3.0 18:03:39 10° SSW 18:07:44 47° SSW 18:07:44 47° SSW
Cosmos 2056 Rocket 4.3 18:05:23 10° NNW 18:09:29 49° WNW 18:09:29 49° WNW
NOSS 3-2 (C) 4.4 18:12:01 10° SW 18:15:09 36° SSW 18:15:09 36° SSW
NOSS 3-2 (A) 4.4 18:37:33 10° WSW 18:41:27 41° W 18:41:27 41° W
USA 215 3.9 18:46:43 49° WSW 18:46:43 49° WSW 18:51:16 10° WSW
